カタログに戻る

ATLAS 5 CENTAUR DEB

運用中HEO
NORAD 44680·DEBRIS·🇺🇸 United States

打ち上げ Oct 17, 2018 から Cape Canaveral Space Force Station

Loading…

次のパス (今後24時間)

TLE

最新Source: Space-Track

元期: Sep 13, 2026, 12:02 UTC

1 44680U 18079AS  26256.50188779 -.00000161  00000-0  00000+0 0  9991
2 44680  13.4302  41.9477 4691822 297.1414  22.9759  1.75587513 47017

AllMySatでATLAS 5 CENTAUR DEBをリアルタイム追跡

Download on the App Store